User: anonymous   Login
Location: Mactaquac Provincial Park
(45.9573°N, 66.8897°W)
Time: 19:02:52
(UTC-04:00)
Language:

Cosmos 1766 - Orbit

View from above orbital plane
View from above orbital plane
View from above satellite
View from above satellite

Ground track
Ground track

The orbit data is extracted from the following two-line orbital elements,

1 16881U 86055A   14331.17296859  .00005366  00000-0  35942-3 0   231
2 16881 082.5124 214.6764 0012869 027.7661 332.4251 15.06644540540737
Epoch (UTC): 27 November 2014 04:09:04
Eccentricity: 0.0012869
inclination: 82.5124°
perigee height: 537 km
apogee height: 555 km
right ascension of ascending node: 214.6764°
argument of perigee: 27.7661°
revolutions per day: 15.06644540
mean anomaly at epoch: 332.4251°
orbit number at epoch: 54073

The dashed part of the orbit path shows where the satellite is in the earth's shadow,  

DLR